Weather History for Santorini Island, Greece

Change the Weather History Date:

Wednesday, December 19, 2012

  Actual Average Record
Temperature  
Mean Temperature 54 °F -  
Max Temperature 59 °F 56 °F 64 °F (1999)
Min Temperature 50 °F 50 °F 41 °F (2001)
Degree Days  
Heating Degree Days 10    
Growing Degree Days 4 (Base 50)    
Moisture  
Dew Point 44 °F    
Average Humidity 71    
Maximum Humidity 82    
Minimum Humidity 59    
Precipitation  
Precipitation 0.00 in - - ()
Sea Level Pressure  
Sea Level Pressure 29.65 in    
Wind  
Wind Speed 2 mph ()    
Max Wind Speed 12 mph    
Max Gust Speed -    
Visibility 6.2 miles    
Events Rain , Thunderstorm    
Averages and records for this station are not official NWS values.
T = Trace of Precipitation, MM = Missing Value Source: Averaged Metar Reports

Daily Weather History Graph

Daily Weather History Graph

Search for Another Location

Airport:

Trip Planner

Search our weather history database for the weather conditions in past years. The results will help you decide how hot, cold, wet, or windy it might be!

Date:

Astronomy

Dec. 19, 2012 Rise Set
Actual Time 7:24 AM EET 5:05 PM EET
Civil Twilight 6:56 AM EET 5:34 PM EET
Nautical Twilight 6:23 AM EET 6:06 PM EET
Astronomical Twilight 5:52 AM EET 6:38 PM EET
Moon 11:35 AM EET (12/19) No Moon Set
Length of Visible Light 10h 38m
Length of Day
9h 40m
Waxing Crescent, 42% of the Moon is Illuminated
Dec 19
Waxing Crescent
Dec 20
First Quarter
Dec 28
Full
Jan 5
Last Quarter
Jan 11
New

Hourly Weather History & Observations

Time (EET) Temp. Dew Point Humidity Pressure Visibility Wind Dir Wind Speed Gust Speed Precip Events Conditions
12:20 AM 59.0 °F 44.6 °F 59% 29.65 in - Calm Calm - N/A   Unknown
12:50 AM 59.0 °F 46.4 °F 63% 29.62 in - Calm Calm - N/A Rain Light Rain
1:20 AM 57.2 °F 46.4 °F 67% 29.62 in - Calm Calm - N/A Rain Light Rain
1:50 AM 55.4 °F 44.6 °F 67% 29.65 in - Calm Calm - N/A Rain Light Rain
2:50 AM 55.4 °F 42.8 °F 63% 29.62 in - Calm Calm - N/A   Unknown
3:20 AM 55.4 °F 42.8 °F 63% 29.62 in - Calm Calm - N/A   Unknown
3:50 AM 55.4 °F 44.6 °F 67% 29.62 in - Calm Calm - N/A   Unknown
4:20 AM 55.4 °F 44.6 °F 67% 29.62 in - Calm Calm - N/A   Unknown
4:50 AM 55.4 °F 44.6 °F 67% 29.62 in - Calm Calm - N/A   Unknown
5:20 AM 55.4 °F 44.6 °F 67% 29.62 in - Calm Calm - N/A Rain Light Rain
5:50 AM 53.6 °F 46.4 °F 77% 29.62 in - Calm Calm - N/A Rain Light Rain
6:20 AM 51.8 °F 44.6 °F 76% 29.62 in - Calm Calm - N/A Rain Light Rain
6:50 AM 51.8 °F 44.6 °F 76% 29.65 in - Calm Calm - N/A   Unknown
7:20 AM 51.8 °F 44.6 °F 76% 29.65 in 6.2 mi West 5.8 mph - N/A   Scattered Clouds
7:50 AM 50.0 °F 42.8 °F 76% 29.65 in 6.2 mi WSW 5.8 mph - N/A   Scattered Clouds
8:20 AM 50.0 °F 42.8 °F 76% 29.65 in 6.2 mi WSW 5.8 mph - N/A   Scattered Clouds
8:50 AM 51.8 °F 46.4 °F 82% 29.65 in 6.2 mi WSW 5.8 mph - N/A   Scattered Clouds
9:20 AM 51.8 °F 46.4 °F 82% 29.65 in 6.2 mi WSW 5.8 mph - N/A   Scattered Clouds
9:50 AM 53.6 °F 48.2 °F 82% 29.65 in 6.2 mi SW 5.8 mph - N/A   Mostly Cloudy
10:50 AM 51.8 °F 44.6 °F 76% 29.65 in 6.2 mi SW 6.9 mph - N/A   Mostly Cloudy
11:20 AM 51.8 °F 44.6 °F 76% 29.65 in 6.2 mi SW 6.9 mph - N/A   Mostly Cloudy
11:50 AM 53.6 °F 46.4 °F 77% 29.65 in 6.2 mi WSW 5.8 mph - N/A Thunderstorm Thunderstorm
12:20 PM 50.0 °F 42.8 °F 76% 29.65 in 6.2 mi West 5.8 mph - N/A Rain , Thunderstorm Light Thunderstorms and Rain
12:50 PM 50.0 °F 42.8 °F 76% 29.65 in 6.2 mi West 5.8 mph - N/A Rain , Thunderstorm Light Thunderstorms and Rain
1:20 PM 51.8 °F 42.8 °F 71% 29.62 in 6.2 mi West 5.8 mph - N/A   Mostly Cloudy
1:50 PM 53.6 °F 42.8 °F 67% 29.62 in 6.2 mi West 5.8 mph - N/A   Mostly Cloudy
2:20 PM 55.4 °F 44.6 °F 67% 29.62 in 6.2 mi West 4.6 mph - N/A   Mostly Cloudy
2:50 PM 55.4 °F 46.4 °F 72% 29.62 in 6.2 mi West 4.6 mph - N/A   Mostly Cloudy
3:20 PM 55.4 °F 46.4 °F 72% 29.65 in 6.2 mi NNW 8.1 mph - N/A   Mostly Cloudy
3:50 PM 55.4 °F 44.6 °F 67% 29.65 in 6.2 mi NNW 9.2 mph - N/A   Mostly Cloudy
4:20 PM 55.4 °F 44.6 °F 67% 29.65 in 6.2 mi NNW 9.2 mph - N/A   Mostly Cloudy
4:50 PM 53.6 °F 44.6 °F 72% 29.65 in 6.2 mi North 11.5 mph - N/A Rain Light Rain
5:20 PM 53.6 °F 44.6 °F 72% 29.65 in 6.2 mi NNW 9.2 mph - N/A   Mostly Cloudy
5:50 PM 51.8 °F 44.6 °F 76% 29.65 in 6.2 mi NW 9.2 mph - N/A Rain Light Rain
6:20 PM 53.6 °F 44.6 °F 72% 29.65 in - Calm Calm - N/A Rain Light Rain
6:50 PM 53.6 °F 42.8 °F 67% 29.68 in - Calm Calm - N/A   Unknown
7:20 PM 53.6 °F 42.8 °F 67% 29.68 in - Calm Calm - N/A   Unknown
7:50 PM 53.6 °F 42.8 °F 67% 29.68 in - Calm Calm - N/A   Unknown
8:20 PM 53.6 °F 42.8 °F 67% 29.68 in - Calm Calm - N/A   Unknown
8:50 PM 53.6 °F 42.8 °F 67% 29.68 in - Calm Calm - N/A   Unknown
9:50 PM 53.6 °F 42.8 °F 67% 29.68 in - Calm Calm - N/A   Unknown
10:20 PM 53.6 °F 42.8 °F 67% 29.71 in - Calm Calm - N/A   Unknown
10:50 PM 53.6 °F 42.8 °F 67% 29.71 in - Calm Calm - N/A   Unknown
11:20 PM 53.6 °F 42.8 °F 67% 29.71 in - Calm Calm - N/A   Unknown
11:50 PM 53.6 °F 42.8 °F 67% 29.68 in - Calm Calm - N/A   Unknown